[Iaude] MPEC R35: 2023 RP [a=1.88,e=0.68,i=5.3,H=23.0]
    mpec at marsden.cfa.harvard.edu 
    mpec at marsden.cfa.harvard.edu
       
    Thu Sep  7 10:48:23 EDT 2023
    
    
  
M.P.E.C. 2023-R35                             Issued 2023 September 7, 14:47 UT
     The Minor Planet Electronic Circulars contain information on unusual
         minor planets, routine data on comets and natural satellites,
         and occasional editorial announcements.  They are published
    on behalf of Division F of the International Astronomical Union by the
          Minor Planet Center, Smithsonian Astrophysical Observatory,
                          Cambridge, MA 02138, U.S.A.
			  
             Prepared using the Tamkin Foundation Computer Network
                              MPC at CFA.HARVARD.EDU
            URL https://www.minorplanetcenter.net/    ISSN 1523-6714
                                    2023 RP                                     
Observations:
     K23R00P  C2023 08 18.40223922 52 18.028-02 31 23.31         22.48GVER035F51
     K23R00P  C2023 08 18.41547122 52 17.159-02 31 30.13         22.51GVER035F51
     K23R00P  C2023 08 18.42868722 52 16.280-02 31 37.43         22.27GVER035F51
     K23R00P  C2023 08 18.44194822 52 15.438-02 31 44.43         22.73GVER035F51
     K23R00P  C2023 08 23.44696922 46 17.128-03 27 33.20         22.22GVER035F52
     K23R00P  C2023 08 23.45723722 46 16.148-03 27 41.53         22.76GVER035F52
     K23R00P  C2023 08 23.46747722 46 15.182-03 27 49.53         22.12GVER035F52
     K23R00P  C2023 08 23.47772422 46 14.217-03 27 58.18         22.34GVER035F52
     K23R00P* C2023 09 04.40065422 19 21.047-07 46 03.56         21.00iXER035F51
     K23R00P  C2023 09 04.41237422 19 18.539-07 46 26.20         20.97iXER035F51
     K23R00P  C2023 09 04.43583722 19 13.498-07 47 11.85         21.29iXER035F51
     K23R00P KC2023 09 05.22660022 16 30.07 -08 13 43.4          20.7 GXER035858
     K23R00P KC2023 09 05.23445322 16 28.28 -08 13 59.9          20.6 GXER035858
     K23R00P KC2023 09 05.24239922 16 26.47 -08 14 16.1          20.5 GXER035858
     K23R00P KC2023 09 05.27321 22 16 19.59 -08 15 19.6          20.9 RVER035691
     K23R00P KC2023 09 05.28430 22 16 17.10 -08 15 42.1          20.7 RVER035691
     K23R00P KC2023 09 05.29538 22 16 14.58 -08 16 05.5          20.9 RVER035691
     K23R00P KB2023 09 05.87979 22 14 06.77 -08 36 47.5          20.1 RZER035106
     K23R00P pC2023 09 05.88679722 14 05.24 -08 37 03.9          20.8 GVER035L01
     K23R00P bC2023 09 05.89295722 14 03.73 -08 37 17.4          20.6 GVER035L01
     K23R00P KB2023 09 05.89498 22 14 03.23 -08 37 22.2          20.4 RZER035106
     K23R00P bC2023 09 05.89684822 14 02.84 -08 37 25.6          20.9 GVER035L01
     K23R00P bC2023 09 05.90048322 14 01.95 -08 37 33.5          20.6 GVER035L01
     K23R00P KB2023 09 05.90257 22 14 01.39 -08 37 39.6          21.0 RZER035106
     K23R00P KC2023 09 05.94360322 13 51.86 -08 39 06.8          20.3 GVER035L06
     K23R00P KC2023 09 05.94748422 13 50.93 -08 39 14.9          20.1 GVER035L06
     K23R00P  C2023 09 06.36192922 12 15.121-08 54 26.37         21.0 GVER035654
     K23R00P  C2023 09 06.36994822 12 13.160-08 54 43.89         21.0 GVER035654
     K23R00P 1C2023 09 07.23006122 08 47.224-09 27 56.12         20.50GVER035G96
     K23R00P 1C2023 09 07.23515222 08 45.892-09 28 08.58         20.85GVER035G96
     K23R00P 1C2023 09 07.24025622 08 44.516-09 28 20.78         20.99GVER035G96
Observer details:
106 Crni Vrh.  Observer H. Mikuz.  0.60-m f/3.3 reflector + CMO.
654 Table Mountain Observatory, Wrightwood-PHMC.  Observers N. Evans, P. Choi,
    N. Saini, C. Zhai, R. Trahan, M. Shao.  1.0-m Reflector + CCD.
691 Steward Observatory, Kitt Peak-Spacewatch.  Observer T. H. Bressi.  0.9-m
    f/3 reflector + CCD.
858 Tebbutt Observatory, Edgewood.  Observer F. B. Zoltowski.  0.51-m f/8.1
    Schmidt-Cassegrain + CCD.
F51 Pan-STARRS 1, Haleakala.  Observers J. Bulger, K. Chambers, T. Lowe, P.
    Minguez, A. Schultz, I. Smith.  Measurers S. Chastel, J. Fairlamb, M.
    Huber, Y. Ramanjooloo, R. Wainscoat, R. Weryk, K. Chambers, T. de Boer, J.
    Bulger, H. Gao, C.-C. Lin, T. Lowe, E. Magnier, P. Minguez, A. Schultz, I.
    Smith.  1.8-m Ritchey-Chretien + CCD.
F52 Pan-STARRS 2, Haleakala.  Observers J. Bulger, K. Chambers, T. Dukes, T.
    Lowe, P. Minguez, A. Schultz, I. Smith.  Measurers S. Chastel, J.
    Fairlamb, M. Huber, Y. Ramanjooloo, R. Wainscoat, R. Weryk.  1.8-m
    Ritchey-Chretien + CCD.
G96 Mt. Lemmon Survey.  Observer A. R. Gibbs.  Measurers E. J. Christensen, D.
    Fay, J. B. Fazekas, D. C. Fuls, A. R. Gibbs, A. D. Grauer, H. Groeller, J.
    K. Hogan, R. A. Kowalski, S. M. Larson, G. J. Leonard, D. Rankin, R. L.
    Seaman, A. Serrano, F. C. Shelly, K. W. Wierzchos.  1.5-m reflector + 10K
    CCD.
L01 Visnjan Observatory, Tican.  Observers K. Korlevic, I. Lyon.  Measurer K.
    Korlevic.  1.0-m f/2.9 reflector + CCD.
L06 Sormano 2 Observatory, Bellagio Via Lattea.  Observers E. Valli, G.
    Ventre.  Measurer P. Sicoli.  0.36m Schmidt Cassegrain + CCD.
Orbital elements:
2023 RP                                                  Earth MOID = 0.0140 AU
Epoch 2023 Sept. 13.0 TT = JDT 2460200.5                Bell                    
M 336.10465              (2000.0)            P               Q                  
n   0.38112641     Peri.  281.08112     +0.06183196     -0.99780948             
a   1.8840396      Node   165.31233     +0.94811731     +0.05135804             
e   0.6762897      Incl.    5.32195     +0.31184992     +0.04169656             
P   2.59           H   23.02          G   0.15           U   8                  
Residuals in seconds of arc
230818 F51  0.1+  0.2-    230905 858  0.6+  0.7+    230905 L01  0.3-  0.3+
230818 F51  0.0   0.1+    230905 858  0.4+  0.4+    230905 106  1.2-  1.1-
230818 F51  0.2-  0.0     230905 858  0.2+  0.6+    230905 L06  1.0-  0.9+
230818 F51  0.2+  0.2+    230905 691  1.1-  0.5-    230905 L06  1.1-  1.2+
230823 F52  0.0   0.1-    230905 691  0.6-  0.0     230906 654  0.2+  0.1+
230823 F52  0.1-  0.1-    230905 691  0.6-  0.4-    230906 654  0.3+  0.5+
230823 F52  0.0   0.2+    230905 106  0.8-  1.6+    230907 G96  0.2+  0.2+
230823 F52  0.1+  0.1-    230905 L01  0.7+  0.1+    230907 G96  0.2+  0.1-
230904 F51  0.0   0.1-    230905 L01  0.2-  0.0     230907 G96  0.3-  0.0
230904 F51  0.1+  0.1+    230905 106  0.4-  0.1-
230904 F51  0.1+  0.0     230905 L01  0.2+  0.2+
Ephemeris:
2023 RP                  a,e,i = 1.88, 0.68, 5                   q = 0.6099
Date    TT    R. A. (2000) Decl.     Delta      r    Elong.  Phase     V
2023 08 08    22 58 40.8 -01 32 40   0.5947  1.5554   149.3    19.4    23.8
...
2023 08 23    22 46 54.8 -03 21 28   0.3981  1.4019   166.8     9.5    22.4
...
2023 08 31    22 31 58.8 -05 43 55   0.3071  1.3163   176.7     2.5    21.3
...
2023 09 06    22 13 39.3 -08 40 40   0.2458  1.2505   169.2     8.7    21.1
2023 09 07    22 09 43.7 -09 18 25   0.2362  1.2394   167.1    10.4    21.0
2023 09 08    22 05 29.1 -09 59 02   0.2269  1.2283   165.0    12.3    21.0
...
2023 09 14    21 31 14.7 -15 16 53   0.1753  1.1608   149.6    26.0    20.7
...
2023 09 22    20 03 16.9 -26 24 20   0.1242  1.0695   118.9    55.3    20.6
...
2023 10 07    14 51 13.9 -30 53 10   0.1356  0.8978    38.6   136.0    24.8
M. P. C. Staff               (C) Copyright 2023 MPC           M.P.E.C. 2023-R35
    
    
More information about the Iaude
mailing list